loading
|

STARLINK-32176, 60340

Orbit data source: Space-Track

STARLINK-32176, 60340 is a payload satellite owned by SpaceX/Seattle (US) in LEO that was launched on Fri, 02 Aug 2024 UTC via an FALCON 9 launch vehicle from the Air Force Eastern Test Range (AFETR). Payloads include a variety of satellites, spacecraft, and rockets equipped with specific instruments for various scientific and technological missions. These include communications satellites like Starlink; space stations such as the ISS; scientific satellites like the Hubble; Earth observation satellites from companies like Planet Labs, Umbra, and HawkEye 360; GPS; miniature CubeSats for education and research; and military/defense satellites.

Loading next visibility...
Loading greatness...
STARLINK-32176 details
Identifier
60340, 2024-136M
Orbit
LEO
Last TLE update11 hours ago
Origin
Flag of USSpaceX/Seattle (US)
ManufacturerSpaceX/Seattle
Mission statusOperational
MissionUnknown
Bus & MotorSTARLINK V2M, Unknown motor
Mass750 kg wet, ~700 kg dry
Launch date (UTC)
2024-08-02 (2 months ago)
Launch vehicle
FALCON 9
Launch site
Air Force Eastern Test Range (AFETR)
Object type
Payload
Rocket body
Debris
Radar Cross SectionLarge (>1 m²)

Expand to show TLE details & history

TLE from 11 hours ago
0 STARLINK-32176
1 60340U 24136M   24261.46453582  .00056316  00000-0  13855-2 0  9996
2 60340  53.1626  56.0993 0002153 260.6361  99.4400 15.40098732  8424
Epoch: 2024-09-17T11:08Z
Definitive object data (Epoch: 2024-09-17T11:08:55.894Z)
Latitude-0.0001°
Longitude-108.01248°
Altitude446.963 km
Speed7.645 km/s
True Right ascension03h 44m 23s
True Declination0° 00' 00"
Sunlit
Object was in full shadow at TLE epoch
Predictive object data (real-time)
Latitude47.55437°
Longitude15.20799°
Altitude452.18 km
Speed7.646 km/s
Apparent Right ascension07h 25m 07s
Apparent Declination12° 58' 55"
Sunlit
Object is in daylight
Predictive observer data (real-time)
Local Sidereal Time15:21:18
Azimuth299.189° NW
Elevation-12.634°
Doppler factor1
Orbital elements
Apogee447.544 km
Perigee444.605 km
Semi-major axis6,824.212 km
Eccentricity0.0002153
Inclination53.1626°
RAAN56.0993°
Arg. of periapsis260.6361°
True anomaly99.46434°
Mean anomaly99.44°
Eccentric anomaly99.45217°
Mean motion3.85003 °/min
BSTAR0.0013855
Period93.51 mins
No data available

STARLINK-32176 Visibility forecast

Observer location: 39.9160978°, -105.1181434

STARLINK-32176 is not visible in the next 10 days
Span
Click to sort rows by Start time (UTC) header in descending order
Start Az.
Max El. time (UTC)
Max El. Az.
Max El.
End time (UTC)
End Az.